Location: Azul
(36.7830°S, 59.8500°W)
Time: 00:53:07
(UTC-03:00)

ISS - Pass Details

Date: 20 June 2017
Orbit: 401 x 408 km, 51.6° (Epoch: 29 June)

Event Time Altitude Azimuth Distance (km) Brightness Sun altitude
Exits shadow 05:54:41 25° 69° (ENE) 879 -1.5 -26.6°
Drops below altitude 10° 05:56:12 10° 61° (ENE) 1,465 -0.1 -26.3°
Sets 05:58:17 0° 56° (ENE) 2,319 1.1 -25.9°
